Location: Ocean City
(38.3360°N, 75.0850°W)
Time: 04:52:31
(UTC-05:00)

Explorer 11/Cluster Stage 4 - Pass Details

Date: 16 November 2019
Orbit: 467 x 1259 km, 28.8° (Epoch: 15 December)

Event Time Altitude Azimuth Distance (km) Brightness Sun altitude
Rises 02:02:18 0° 265° (W) 4,131 - -54.3°
Reaches altitude 10° 02:05:49 10° 252° (WSW) 3,212 - -53.7°
Maximum altitude 02:11:55 23° 204° (SSW) 2,366 - -52.6°
Drops below altitude 10° 02:17:56 10° 155° (SSE) 3,151 - -51.5°
Sets 02:21:21 0° 142° (SE) 4,035 - -50.9°
